Voltar ao catálogo

YAOGAN-39 05B

AtivoMilitarVLEO
NORAD 58558·PAYLOAD·🇨🇳 China

Lançado Dec 10, 2023 de Xichang Satellite Launch Center

Loading…

Próximas Passagens (próximas 24 horas)

TLE

AtualizadoSource: Space-Track

Época: Sep 14, 2026, 09:51 UTC

1 58558U 23194B   26257.41067321  .00003541  00000-0  17841-3 0  9993
2 58558  34.9915 245.0783 0011067 351.5015   8.5508 15.16629174153656

Acompanhe YAOGAN-39 05B em tempo real com AllMySat

Download on the App Store